Weather History for KANE - August, 2012

Change the Weather History Date:

Wednesday, August 29, 2012

  Actual Average Record
Temperature  
Mean Temperature 80 °F -  
Max Temperature 93 °F 76 °F 93 °F (2012)
Min Temperature 68 °F 56 °F 46 °F (2004)
Cooling Degree Days 16    
Growing Degree Days 30 (Base 50)    
Moisture  
Dew Point 64 °F    
Average Humidity 68    
Maximum Humidity 88    
Minimum Humidity 32    
Precipitation  
Precipitation 0.00 in - - ()
Sea Level Pressure  
Sea Level Pressure 29.90 in    
Wind  
Wind Speed 7 mph (SE)    
Max Wind Speed 13 mph    
Max Gust Speed 17 mph    
Visibility 10 miles    
Events      
Averages and records for this station are not official NWS values.
T = Trace of Precipitation, MM = Missing Value Source: NWS Daily Summary

Daily Weather History Graph

Daily Weather History Graph

Search for Another Location

Airport or City:

Trip Planner

Search our weather history database for the weather conditions in past years. The results will help you decide how hot, cold, wet, or windy it might be!

Date:

Astronomy

Aug. 29, 2012 Rise Set
Actual Time 6:31 AM CDT 7:54 PM CDT
Civil Twilight 6:01 AM CDT 8:25 PM CDT
Nautical Twilight 5:24 AM CDT 9:01 PM CDT
Astronomical Twilight 4:44 AM CDT 9:41 PM CDT
Moon 6:36 PM CDT (8/29) 4:24 AM CDT (8/29)
Length of Visible Light 14h 24m
Length of Day
13h 22m
Waxing Gibbous, 96% of the Moon is Illuminated
Aug 29
Waxing Gibbous
Aug 31
Full
Sep 8
Last Quarter
Sep 15
New
Sep 22
First Quarter

Hourly Weather History & Observations

Time (CDT) Temp. Heat Index Dew Point Humidity Pressure Visibility Wind Dir Wind Speed Gust Speed Precip Events Conditions
12:14 AM 71.6 °F - 64.4 °F 78% 29.99 in 10.0 mi ESE 6.9 mph - N/A   Clear
12:34 AM 71.6 °F - 64.4 °F 78% 29.99 in 10.0 mi ESE 6.9 mph - N/A   Clear
12:54 AM 71.6 °F - 64.4 °F 78% 29.99 in 10.0 mi ESE 5.8 mph - N/A   Clear
1:14 AM 71.6 °F - 64.4 °F 78% 29.99 in 10.0 mi ESE 5.8 mph - N/A   Clear
1:34 AM 71.6 °F - 64.4 °F 78% 29.98 in 10.0 mi East 4.6 mph - N/A   Clear
1:54 AM 69.8 °F - 64.4 °F 83% 29.98 in 10.0 mi ESE 3.5 mph - N/A   Clear
2:13 AM 69.8 °F - 64.4 °F 83% 29.97 in 10.0 mi East 3.5 mph - N/A   Clear
2:34 AM 69.8 °F - 64.4 °F 83% 29.97 in 10.0 mi ESE 4.6 mph - N/A   Clear
2:54 AM 69.8 °F - 64.4 °F 83% 29.96 in 10.0 mi SE 4.6 mph - N/A   Clear
3:13 AM 69.8 °F - 64.4 °F 83% 29.96 in 10.0 mi ESE 5.8 mph - N/A   Clear
3:34 AM 69.8 °F - 64.4 °F 83% 29.96 in 10.0 mi East 4.6 mph - N/A   Clear
3:54 AM 69.8 °F - 64.4 °F 83% 29.95 in 10.0 mi East 4.6 mph - N/A   Clear
4:13 AM 69.8 °F - 64.4 °F 83% 29.95 in 10.0 mi East 4.6 mph - N/A   Clear
4:34 AM 69.8 °F - 64.4 °F 83% 29.95 in 10.0 mi ESE 3.5 mph - N/A   Clear
4:54 AM 68.0 °F - 64.4 °F 88% 29.94 in 10.0 mi ESE 4.6 mph - N/A   Clear
5:13 AM 69.8 °F - 64.4 °F 83% 29.94 in 10.0 mi ESE 4.6 mph - N/A   Clear
5:34 AM 69.8 °F - 64.4 °F 83% 29.94 in 10.0 mi ESE 4.6 mph - N/A   Clear
5:54 AM 69.8 °F - 64.4 °F 83% 29.94 in 10.0 mi ESE 3.5 mph - N/A   Clear
6:14 AM 69.8 °F - 64.4 °F 83% 29.94 in 10.0 mi ESE 6.9 mph - N/A   Clear
6:34 AM 69.8 °F - 64.4 °F 83% 29.94 in 10.0 mi ESE 6.9 mph - N/A   Clear
6:54 AM 69.8 °F - 64.4 °F 83% 29.94 in 10.0 mi ESE 6.9 mph - N/A   Clear
8:45 AM 75.2 °F - 66.2 °F 73% 29.94 in 10.0 mi ESE 6.9 mph - N/A   Clear
9:45 AM 78.8 °F - 66.2 °F 65% 29.92 in 10.0 mi ESE 9.2 mph - N/A   Clear
10:45 AM 82.4 °F 83.9 °F 64.4 °F 54% 29.91 in 10.0 mi SE 11.5 mph 17.3 mph N/A   Clear
1:45 PM 89.6 °F 91.1 °F 64.4 °F 43% 29.87 in 10.0 mi SE 11.5 mph - N/A   Clear
2:45 PM 91.4 °F 91.4 °F 60.8 °F 36% 29.85 in 10.0 mi SE 10.4 mph - N/A   Clear
3:59 PM 93.2 °F 93.3 °F 60.8 °F 34% 29.83 in 10.0 mi SE 11.5 mph - N/A   Clear
4:50 PM 91.4 °F 91.4 °F 60.8 °F 36% 29.82 in 10.0 mi South 12.7 mph - N/A   Clear
5:45 PM 93.2 °F 92.6 °F 59.0 °F 32% 29.80 in 10.0 mi SSE 10.4 mph 17.3 mph N/A   Clear
6:45 PM 91.4 °F 91.4 °F 60.8 °F 36% 29.79 in 10.0 mi SSE 10.4 mph - N/A   Clear
8:45 PM 78.8 °F - 64.4 °F 61% 29.79 in 10.0 mi ESE 4.6 mph - N/A   Clear
9:14 PM 80.6 °F 82.3 °F 64.4 °F 58% 29.79 in 10.0 mi SE 5.8 mph - N/A   Clear
9:34 PM 82.4 °F 83.9 °F 64.4 °F 54% 29.79 in 10.0 mi SSE 9.2 mph - N/A   Clear
9:45 PM 82.4 °F 83.4 °F 62.6 °F 51% 29.79 in 10.0 mi SSE 9.2 mph - N/A   Clear
9:54 PM 82.4 °F 83.4 °F 62.6 °F 51% 29.78 in 10.0 mi SSE 10.4 mph - N/A   Clear
10:34 PM 80.6 °F 81.8 °F 62.6 °F 54% 29.78 in 10.0 mi South 10.4 mph - N/A   Clear
10:53 PM 80.6 °F 81.5 °F 60.8 °F 51% 29.78 in 10.0 mi SSE 10.4 mph - N/A   Clear